This is the latest recevied weather packets stored in our database for station/object N3SBK. If no packets are shown the sender has not sent any weather packets the latest 10 day(s).
| Time | Temp. | Humidity | Pressure | Rain* | Wind** | Luminosity | Snow |
|---|---|---|---|---|---|---|---|
| 1777926532 | 22.78° C | 41% | 999.4 hPa | 0 mm | - | 436 W/m² | - |
| 1777926229 | 23.33° C | 40% | 999.2 hPa | 0 mm | - | 441 W/m² | - |
| 1777925925 | 23.33° C | 41% | 999.3 hPa | 0 mm | - | 466 W/m² | - |
| 1777925623 | 22.78° C | 40% | 999.2 hPa | 0 mm | - | 486 W/m² | - |
| 1777925320 | 21.67° C | 42% | 999.4 hPa | 0 mm | - | 555 W/m² | - |
| 1777925017 | 21.67° C | 43% | 999.5 hPa | 0 mm | - | 136 W/m² | - |
| 1777924713 | 22.78° C | 40% | 999.2 hPa | 0 mm | - | 145 W/m² | - |
| 1777924409 | 22.78° C | 39% | 999.3 hPa | 0 mm | - | 154 W/m² | - |
| 1777924106 | 22.78° C | 41% | 999.4 hPa | 0 mm | - | 626 W/m² | - |
| 1777923802 | 22.78° C | 41% | 999.2 hPa | 0 mm | - | 665 W/m² | - |
| 1777923498 | 23.33° C | 40% | 999.4 hPa | 0 mm | - | 166 W/m² | - |
| 1777923196 | 23.33° C | 39% | 999.4 hPa | 0 mm | - | 129 W/m² | - |
| 1777922894 | 23.89° C | 40% | 999.6 hPa | 0 mm | - | 617 W/m² | - |
| 1777922592 | 23.33° C | 40% | 999.8 hPa | 0 mm | - | 625 W/m² | - |
| 1777922290 | 22.78° C | 41% | 999.8 hPa | 0 mm | - | 614 W/m² | - |
| 1777921987 | 22.78° C | 42% | 999.6 hPa | 0 mm | - | 621 W/m² | - |
| 1777921682 | 22.22° C | 42% | 1000 hPa | 0 mm | - | 658 W/m² | - |
| 1777921379 | 22.78° C | 39% | 1000 hPa | 0 mm | - | 254 W/m² | - |
| 1777921075 | 22.22° C | 41% | 1000.2 hPa | 0 mm | - | 692 W/m² | - |
| 1777920772 | 21.67° C | 43% | 1000.2 hPa | 0 mm | - | 424 W/m² | - |
| 1777920468 | 21.11° C | 42% | 1000.3 hPa | 0 mm | - | 215 W/m² | - |
| 1777920164 | 21.67° C | 42% | 1000.4 hPa | 0 mm | - | 246 W/m² | - |
| 1777919860 | 21.11° C | 43% | 1000.5 hPa | 0 mm | - | 310 W/m² | - |
| 1777919557 | 21.11° C | 43% | 1000.5 hPa | 0 mm | - | 213 W/m² | - |
| 1777919255 | 21.11° C | 42% | 1000.5 hPa | 0 mm | - | 161 W/m² | - |
* Rain latest hour (hover to see other rain measurements)
** Current wind speed in m/s (hover to see current wind gust speed)